Location: Neuvy Saint Sepulchre
(46.5953°N, 1.8122°E)
Time: 06:01:52
(UTC+02:00)

ISS - Pass Details

Date: 28 June 2021
Orbit: 417 x 422 km, 51.6° (Epoch: 16 June)

Event Time Altitude Azimuth Distance (km) Brightness Sun altitude
Exits shadow 05:00:55 - 192° (SSW) 1,573 -1.4 -8.6°
Reaches altitude 10° 05:01:10 10° 190° (S) 1,494 -1.5 -8.6°
Maximum altitude 05:03:47 21° 138° (SE) 985 -1.9 -8.3°
Drops below altitude 10° 05:06:26 10° 86° (E) 1,499 -0.2 -8.0°
Sets 05:08:50 0° 71° (ENE) 2,366 1.3 -7.7°
